Zurück zum Katalog

STARLINK-32591

AktivKommunikationVLEO
NORAD 61718·PAYLOAD·🇺🇸 United States

Gestartet Oct 30, 2024 von Cape Canaveral Space Force Station

Loading…

Nächste Überflüge (nächste 24 Stunden)

TLE

AktuellSource: CelesTrak SupGP

Epoche: Sep 14, 2026, 20:46 UTC

1 61718C 24196M   26257.86576389  .00022730  00000+0  67181-3 0  2575
2 61718  53.1567 285.7515 0001090  89.0026  55.7151 15.34367893    14

Verfolge STARLINK-32591 in Echtzeit mit AllMySat

Download on the App Store